When you browse on this site, cookies collect data to enhance your experience and personalize the content and advertising you see.
Visit our Privacy Policy to learn more. By continuing to use the site, you agree to this use of cookies and data.

Hourly Weather Achaea

Today, 4 July, Saturday

Time Temperature Precipitation Wind Pressure Humidity
00:00 +22°C° 0 mm 1 mps 683 mmHg 64%
01:00 +22°C° 0 mm 1 mps 684 mmHg 62%
02:00 +22°C° 0 mm 1 mps 684 mmHg 63%
03:00 +22°C° 0 mm 1 mps 683 mmHg 63%
04:00 +21°C° 0 mm 1 mps 683 mmHg 63%
05:00 +24°C° 0 mm 1 mps 684 mmHg 57%
06:00 +26°C° 0 mm 1 mps 684 mmHg 51%
07:00 +26°C° 0 mm 0 mps 685 mmHg 45%
08:00 +30°C° 0 mm 1 mps 685 mmHg 41%
09:00 +31°C° 0 mm 1 mps 685 mmHg 37%
10:00 +32°C° 0 mm 2 mps 686 mmHg 33%
11:00 +31°C° 0.1 mm 2 mps 685 mmHg 37%
12:00 +30°C° 0.1 mm 2 mps 685 mmHg 41%
13:00 +29°C° 0.1 mm 2 mps 685 mmHg 45%
14:00 +28°C° 0.3 mm 2 mps 685 mmHg 50%
15:00 +27°C° 0.3 mm 2 mps 684 mmHg 55%
16:00 +26°C° 0.3 mm 2 mps 684 mmHg 61%
17:00 +25°C° 0 mm 2 mps 684 mmHg 63%
18:00 +24°C° 0 mm 1 mps 684 mmHg 65%
19:00 +23°C° 0 mm 1 mps 684 mmHg 67%
20:00 +23°C° 0 mm 1 mps 684 mmHg 68%
21:00 +22°C° 0 mm 1 mps 683 mmHg 69%
22:00 +22°C° 0 mm 1 mps 683 mmHg 70%
23:00 +21°C° 0 mm 1 mps 683 mmHg 71%

Tomorrow, 5 July, Sunday

Time Temperature Precipitation Wind Pressure Humidity
00:00 +21°C° 0 mm 1 mps 683 mmHg 72%
01:00 +21°C° 0 mm 1 mps 683 mmHg 73%
02:00 +21°C° 0.1 mm 1 mps 682 mmHg 73%
03:00 +20°C° 0.1 mm 1 mps 682 mmHg 73%
04:00 +20°C° 0.1 mm 1 mps 682 mmHg 73%
05:00 +22°C° 0.1 mm 1 mps 682 mmHg 67%
06:00 +24°C° 0.1 mm 1 mps 683 mmHg 61%
07:00 +26°C° 0.1 mm 1 mps 683 mmHg 56%
08:00 +27°C° 0.1 mm 1 mps 683 mmHg 49%
09:00 +29°C° 0.1 mm 1 mps 684 mmHg 43%
10:00 +31°C° 0.1 mm 2 mps 684 mmHg 36%
11:00 +29°C° 0.5 mm 2 mps 683 mmHg 43%
12:00 +27°C° 0.5 mm 2 mps 683 mmHg 51%
13:00 +26°C° 0.5 mm 2 mps 682 mmHg 58%
14:00 +24°C° 2.6 mm 2 mps 682 mmHg 64%
15:00 +23°C° 2.6 mm 2 mps 682 mmHg 69%
16:00 +21°C° 2.6 mm 2 mps 682 mmHg 75%
17:00 +20°C° 0.7 mm 2 mps 682 mmHg 77%
18:00 +20°C° 0.7 mm 2 mps 681 mmHg 78%
19:00 +19°C° 0.7 mm 2 mps 681 mmHg 80%
20:00 +19°C° 0 mm 2 mps 681 mmHg 77%
21:00 +19°C° 0 mm 2 mps 681 mmHg 75%
22:00 +20°C° 0 mm 1 mps 681 mmHg 72%
23:00 +19°C° 0 mm 1 mps 681 mmHg 72%

Day after tomorrow, 6 July, Monday

Time Temperature Precipitation Wind Pressure Humidity
00:00 +18°C° 0 mm 2 mps 680 mmHg 72%
01:00 +18°C° 0 mm 2 mps 680 mmHg 72%
02:00 +19°C° 0 mm 1 mps 680 mmHg 73%
03:00 +19°C° 0 mm 1 mps 680 mmHg 74%
04:00 +19°C° 0 mm 1 mps 679 mmHg 74%
05:00 +20°C° 0 mm 1 mps 680 mmHg 69%
06:00 +22°C° 0 mm 1 mps 680 mmHg 64%
07:00 +24°C° 0 mm 1 mps 681 mmHg 59%
08:00 +25°C° 0 mm 1 mps 681 mmHg 52%
09:00 +27°C° 0 mm 1 mps 681 mmHg 45%
10:00 +29°C° 0 mm 2 mps 681 mmHg 39%
11:00 +28°C° 0.1 mm 2 mps 681 mmHg 41%
12:00 +27°C° 0.1 mm 2 mps 680 mmHg 43%
13:00 +27°C° 0.1 mm 2 mps 680 mmHg 46%
14:00 +26°C° 0.5 mm 2 mps 680 mmHg 49%
15:00 +26°C° 0.5 mm 2 mps 680 mmHg 52%
16:00 +26°C° 0.5 mm 1 mps 679 mmHg 56%
17:00 +24°C° 0.5 mm 1 mps 679 mmHg 62%
18:00 +23°C° 0.5 mm 1 mps 679 mmHg 68%
19:00 +22°C° 0.5 mm 1 mps 679 mmHg 73%
20:00 +21°C° 0.1 mm 1 mps 679 mmHg 75%
21:00 +20°C° 0.1 mm 1 mps 678 mmHg 78%
22:00 +20°C° 0.1 mm 1 mps 678 mmHg 80%
23:00 +20°C° 0 mm 1 mps 678 mmHg 80%

7 July, Tuesday

Time Temperature Precipitation Wind Pressure Humidity
00:00 +19°C° 0 mm 1 mps 678 mmHg 80%
01:00 +19°C° 0 mm 1 mps 678 mmHg 80%
02:00 +19°C° 0 mm 1 mps 678 mmHg 79%
03:00 +19°C° 0 mm 1 mps 677 mmHg 78%
04:00 +19°C° 0 mm 1 mps 677 mmHg 78%
05:00 +20°C° 0 mm 1 mps 678 mmHg 73%
06:00 +22°C° 0 mm 1 mps 678 mmHg 68%
07:00 +24°C° 0 mm 1 mps 679 mmHg 62%
08:00 +25°C° 0 mm 1 mps 679 mmHg 56%
09:00 +27°C° 0 mm 1 mps 680 mmHg 50%
10:00 +28°C° 0 mm 1 mps 680 mmHg 44%
11:00 +28°C° 0.1 mm 2 mps 680 mmHg 44%
12:00 +28°C° 0.1 mm 2 mps 680 mmHg 44%
13:00 +28°C° 0.1 mm 2 mps 680 mmHg 44%
14:00 +28°C° 0.1 mm 2 mps 680 mmHg 45%
15:00 +28°C° 0.1 mm 2 mps 681 mmHg 45%
16:00 +28°C° 0.1 mm 2 mps 681 mmHg 46%
17:00 +26°C° 0 mm 1 mps 681 mmHg 54%
18:00 +24°C° 0 mm 1 mps 681 mmHg 61%
19:00 +23°C° 0 mm 1 mps 680 mmHg 69%
20:00 +22°C° 0 mm 1 mps 681 mmHg 70%
21:00 +22°C° 0 mm 1 mps 681 mmHg 70%
22:00 +21°C° 0 mm 1 mps 681 mmHg 71%
23:00 +21°C° 0 mm 1 mps 681 mmHg 71%

8 July, Wednesday

Time Temperature Precipitation Wind Pressure Humidity
00:00 +21°C° 0 mm 1 mps 681 mmHg 71%
01:00 +21°C° 0 mm 1 mps 681 mmHg 71%
02:00 +21°C° 0 mm 1 mps 681 mmHg 71%
03:00 +21°C° 0 mm 1 mps 681 mmHg 71%
04:00 +21°C° 0 mm 1 mps 681 mmHg 70%
05:00 +23°C° 0 mm 1 mps 682 mmHg 64%
06:00 +24°C° 0 mm 1 mps 683 mmHg 58%
07:00 +26°C° 0 mm 1 mps 684 mmHg 53%
08:00 +28°C° 0 mm 2 mps 684 mmHg 48%
09:00 +29°C° 0 mm 2 mps 685 mmHg 44%
10:00 +30°C° 0 mm 2 mps 686 mmHg 39%
11:00 +31°C° 0 mm 3 mps 686 mmHg 40%
12:00 +31°C° 0 mm 3 mps 686 mmHg 40%
13:00 +32°C° 0 mm 4 mps 686 mmHg 40%
14:00 +30°C° 0 mm 3 mps 686 mmHg 44%
15:00 +29°C° 0 mm 3 mps 686 mmHg 48%
16:00 +28°C° 0 mm 2 mps 686 mmHg 51%
17:00 +26°C° 0 mm 2 mps 686 mmHg 58%
18:00 +25°C° 0 mm 2 mps 686 mmHg 64%
19:00 +23°C° 0 mm 2 mps 686 mmHg 70%
20:00 +23°C° 0 mm 2 mps 686 mmHg 72%
21:00 +21°C° 0 mm 2 mps 686 mmHg 73%
22:00 +21°C° 0 mm 2 mps 687 mmHg 75%
23:00 +20°C° 0 mm 2 mps 686 mmHg 76%

9 July, Thursday

Time Temperature Precipitation Wind Pressure Humidity
00:00 +19°C° 0 mm 2 mps 686 mmHg 77%
01:00 +19°C° 0 mm 3 mps 686 mmHg 78%
02:00 +19°C° 0 mm 3 mps 686 mmHg 78%
03:00 +18°C° 0 mm 3 mps 686 mmHg 78%
04:00 +18°C° 0 mm 3 mps 686 mmHg 79%
05:00 +19°C° 0 mm 3 mps 686 mmHg 73%
06:00 +21°C° 0 mm 3 mps 687 mmHg 67%
07:00 +22°C° 0 mm 3 mps 687 mmHg 61%
08:00 +25°C° 0 mm 3 mps 688 mmHg 56%
09:00 +27°C° 0 mm 3 mps 688 mmHg 51%
10:00 +28°C° 0 mm 3 mps 688 mmHg 46%
11:00 +29°C° 0 mm 4 mps 688 mmHg 45%
12:00 +29°C° 0 mm 4 mps 688 mmHg 45%
13:00 +29°C° 0 mm 4 mps 688 mmHg 44%
14:00 +28°C° 0 mm 4 mps 688 mmHg 46%
15:00 +28°C° 0 mm 4 mps 687 mmHg 48%
16:00 +27°C° 0 mm 3 mps 687 mmHg 50%
17:00 +25°C° 0 mm 3 mps 687 mmHg 56%
18:00 +24°C° 0 mm 2 mps 686 mmHg 63%
19:00 +21°C° 0 mm 2 mps 686 mmHg 69%
20:00 +20°C° 0 mm 2 mps 686 mmHg 71%
21:00 +19°C° 0 mm 2 mps 686 mmHg 72%
22:00 +19°C° 0 mm 2 mps 686 mmHg 74%
23:00 +18°C° 0 mm 2 mps 686 mmHg 73%
Show more